Flag Weather past 2 weeks in Niamey, Niger

Now
97 °F

Extremely hot.


Feels Like: 92 °F
Forecast: 71 / 98 °F
Wind: 3 mph from North

Location: Niamey-Aero

Current Time: Nov 28, 2014 at 5:10:38 PM

Latest Report: Nov 28, 2014 at 4:00 PM


Visibility: N/A

Pressure: 29.80 "Hg

Humidity: 9%

Dew point: 28 °F

Location of NiameyLocation

Historic Weather in Niamey — Graph

°F

Niamey temperature yesterday

Maximum temperature yesterday: 95 °F (at 3:00 PM)
Minimum temperature yesterday: 70 °F (at 4:00 AM)
Average temperature yesterday: 81 °F

Past Weeks' High & Low Weather Summary

 TemperatureHumidityPressure
High102 °F (Nov 13, 3:00 PM)41% (Nov 17, 3:00 AM)30.01 "Hg (Nov 17, 3:00 AM)
Low66 °F (Nov 25, 7:00 AM)6% (Nov 16, 3:00 PM)29.74 "Hg (Nov 17, 3:00 PM)
Average84 °F18%29.88 "Hg
* Reported Nov 13 3:00 PM — Nov 28 3:00 PM, Niamey, Weather by CustomWeather, © 2014

Note: Actual official high and low records may vary slightly from our data, if they occured in-between our weather recording intervals... More about our weather records

Advertising

Niamey weather history for previous 24 hours

 ConditionsComfort  
Time TempWeatherWind HumidityBarometerVisibility
3:00 PM
Nov 28
97 °FClear.3 mph9%29.83 "Hg5 mi
2:00 PM97 °FClear.7 mph9%29.83 "Hg5 mi
1:00 PM95 °FClear.6 mph11%29.86 "Hg5 mi
12:00 PM91 °FClear.9 mph11%29.89 "Hg5 mi
11:00 AM90 °FClear.12 mph12%29.92 "Hg5 mi
10:00 AM84 °FClear.7 mph15%29.92 "Hg4 mi
9:00 AM79 °FDuststorm.5 mph20%29.92 "Hg2 mi
8:00 AM72 °FDuststorm.5 mph29%29.89 "Hg3 mi
7:00 AM68 °FDuststorm.3 mph38%29.89 "Hg2 mi
6:00 AM68 °FMild.2 mph35%29.89 "HgN/A
5:00 AM68 °FDuststorm.No wind38%29.86 "Hg3 mi
4:00 AM70 °FDuststorm.No wind33%29.86 "Hg3 mi
3:00 AM72 °FDuststorm.1 mph27%29.86 "Hg3 mi
2:00 AM72 °FDuststorm.3 mph31%29.89 "Hg3 mi
1:00 AM75 °FDuststorm.1 mph25%29.89 "Hg3 mi
12:00 AM75 °FDuststorm.No wind24%29.89 "Hg3 mi
11:00 PM
Nov 27
77 °FDuststorm.No wind21%29.89 "Hg3 mi
10:00 PM79 °FClear.3 mph21%29.89 "Hg4 mi
9:00 PM82 °FClear.3 mph16%29.89 "Hg4 mi
8:00 PM84 °FDuststorm.3 mph15%29.86 "Hg2 mi
7:00 PM86 °FDuststorm.No wind15%29.86 "Hg2 mi
6:00 PM91 °FClear.3 mph10%29.83 "Hg4 mi
5:00 PM93 °FClear.6 mph9%29.83 "Hg4 mi
Weather by CustomWeather, © 2014

See weather overviewHow to use our weather pages